Location: Joffre
(52.3362°N, 113.5373°W)
Time: 12:08:31
(UTC+00:00)

N. Korean satellite - Pass Details

Date: 06 December 2021
Orbit: 447 x 491 km, 97.3° (Epoch: 21 January)

Event Time Altitude Azimuth Distance (km) Brightness Sun altitude
Rises 13:14:46 0° 11° (N) 2,472 10.1 -19.2°
Reaches altitude 10° 13:16:50 10° 8° (N) 1,591 9.1 -18.9°
Maximum altitude 13:20:12 64° 287° (WNW) 504 6.3 -18.4°
Drops below altitude 10° 13:23:32 10° 205° (SSW) 1,573 9.0 -17.9°
Sets 13:25:33 0° 202° (SSW) 2,441 10.0 -17.6°
